Location: El Bakhil
(32.7726°N, 5.5387°W)
Time: 00:26:59
(UTC+00:00)

Envisat - Visible Passes

Search period start: 02 December 2021 00:00
Search period end: 12 December 2021 00:00
Orbit: 764 x 766 km, 98.2° (Epoch: 01 December)

Date Brightness Start Highest point End Pass type
(mag) Time Alt. Az. Time Alt. Az. Time Alt. Az.
02 Dec 3.1 05:11:50 10° NNE 05:16:55 74° ESE 05:21:58 10° S visible
02 Dec 6.3 18:04:17 10° WSW 18:06:03 12° W 18:07:50 10° WNW visible
03 Dec 4.8 04:35:33 10° NE 04:39:59 30° E 04:44:23 10° SSE visible
03 Dec 3.9 06:14:43 10° NNW 06:18:48 25° WNW 06:22:54 10° WSW visible
04 Dec 6.0 04:01:00 10° ENE 04:02:52 12° E 04:04:44 10° ESE visible
04 Dec 2.9 05:37:11 10° N 05:42:11 60° WNW 05:47:09 10° SSW visible
05 Dec 3.6 05:00:22 10° NNE 05:05:22 56° E 05:10:19 10° S visible
05 Dec 4.5 06:41:17 10° NW 06:43:50 14° WNW 06:46:24 10° W visible
05 Dec 6.0 17:51:23 10° SW 17:54:24 16° W 17:57:27 10° WNW visible
06 Dec 5.2 04:24:23 10° NE 04:28:22 23° E 04:32:19 10° SSE visible
06 Dec 3.6 06:02:51 10° N 06:07:20 32° WNW 06:11:49 10° SW visible
07 Dec 2.8 05:25:34 10° N 05:30:39 79° WNW 05:35:43 10° SSW visible
08 Dec 4.1 04:48:58 10° NNE 04:53:47 42° E 04:58:34 10° S visible
08 Dec 4.3 06:29:02 10° NNW 06:32:25 18° WNW 06:35:48 10° WSW visible
08 Dec 5.8 17:39:00 10° SW 17:42:46 21° W 17:46:32 10° NW visible
09 Dec 5.6 04:13:24 10° NE 04:16:44 17° E 04:20:03 10° SE visible
09 Dec 3.3 05:51:06 10° N 05:55:51 42° WNW 06:00:36 10° SW visible
10 Dec 3.0 05:14:01 10° NNE 05:19:07 80° ESE 05:24:10 10° S visible
10 Dec 6.5 18:07:13 10° WSW 18:08:17 11° W 18:09:21 10° W visible
11 Dec 4.6 04:37:39 10° NE 04:42:11 32° E 04:46:41 10° SSE visible
11 Dec 4.0 06:17:01 10° NNW 06:20:58 23° WNW 06:24:55 10° WSW visible
